This demonstration page uses our WeatherBlox Daily Observations layout. Learn more.

Left ArrowRight Arrow

36.19886, -115.1175

Hourly Observations for August 6, 2017

Temp ( °F °C ) Dew Point ( °F °C ) Humidity (%) Winds ( mph kmh ) Pressure ( in mb ) Visibility ( mi km ) Precip ( " mm )
12:53 am 00:53 Mostly Clear 87 30.6 57 13.9 36 36 E 16 26 29.81 1010 10 16 N/A
1:53 am 01:53 Clear 85 29.4 57 13.9 39 39 ENE 7 11 29.83 1010 10 16 N/A
2:53 am 02:53 Clear 84 28.9 58 14.4 41 41 NW 9 15 29.83 1010 10 16 N/A
3:53 am 03:53 Clear 82 27.8 58 14.4 44 44 NNW 13 20 29.82 1010 10 16 N/A
4:53 am 04:53 Clear 81 27.2 58 14.4 45 45 WNW 9 15 29.83 1010 10 16 N/A
5:53 am 05:53 Sunny 80 26.7 57 13.9 45 45 NNW 9 15 29.83 1010 10 16 N/A
6:53 am 06:53 Sunny 80 26.7 57 13.9 45 45 NNW 9 15 29.85 1011 10 16 N/A
7:53 am 07:53 Sunny 82 27.8 57 13.9 42 42 N 9 15 29.87 1011 10 16 N/A
8:53 am 08:53 Sunny 86 30 57 13.9 37 37 N 6 9 29.87 1012 10 16 N/A
9:53 am 09:53 Sunny 88 31.1 56 13.3 34 34 SE 3 6 29.87 1012 10 16 N/A
10:53 am 10:53 Sunny 90 32.2 55 12.8 31 31 ESE 6 9 29.87 1011 10 16 N/A
11:53 am 11:53 Sunny 93 33.9 54 12.2 27 27 E 3 6 29.86 1011 10 16 N/A
12:53 pm 12:53 Sunny 95 35 53 11.7 24 24 E 5 7 29.84 1011 10 16 N/A
1:53 pm 13:53 Sunny 97 36.1 53 11.7 23 23 S 9 15 29.82 1010 10 16 N/A
2:53 pm 14:53 Sunny 99 37.2 51 10.6 20 20 N N/A 29.79 1009 10 16 N/A
3:53 pm 15:53 Sunny 100 37.8 51 10.6 19 19 S 7 11 29.76 1008 10 16 N/A
4:10 pm 16:10 Sunny with Nearby Thunderstorms 99 37.2 51 10.6 20 20 SSE 9 15 29.59 1002 10 16 N/A
4:32 pm 16:32 Sunny 100 37.8 50 10 18 18 SSE 14 22 29.59 1002 10 16 N/A
4:53 pm 16:53 Partly Cloudy 99 37.2 50 10 19 19 VRB 6 9 29.75 1007 10 16 N/A
5:53 pm 17:53 Mostly Cloudy 99 37.2 47 8.3 17 17 SE 9 15 29.73 1007 10 16 N/A
6:53 pm 18:53 Mostly Cloudy 99 37.2 48 8.9 18 18 ESE 9 15 29.72 1007 10 16 N/A
7:53 pm 19:53 Mostly Cloudy 97 36.1 47 8.3 18 18 S 7 11 29.74 1007 10 16 N/A
8:53 pm 20:53 Clear 95 35 46 7.8 19 19 SSE 12 19 29.75 1008 10 16 N/A
9:53 pm 21:53 Clear 94 34.4 47 8.3 20 20 SSW 3 6 29.77 1008 10 16 N/A
10:53 pm 22:53 Clear 93 33.9 47 8.3 21 21 S 8 13 29.78 1009 10 16 N/A
11:53 pm 23:53 Clear 92 33.3 48 8.9 22 22 WSW 7 11 29.80 1009 10 16 N/A

Powered by AerisWeather